Location: D�pe
(52.6057°N, 8.1808°E)
Time: 02:03:14
(UTC+00:00)

YAOGAN 1 - Pass Details

Date: 29 October 2020
Orbit: 618 x 620 km, 97.9° (Epoch: 23 November)

Event Time Altitude Azimuth Distance (km) Brightness Sun altitude
Rises 17:16:16 0° 144° (SE) 2,890 5.7 -11.7°
Reaches altitude 10° 17:18:31 10° 137° (SE) 1,988 4.8 -12.0°
Maximum altitude 17:22:35 42° 67° (ENE) 896 2.9 -12.7°
Drops below altitude 10° 17:26:41 10° 357° (N) 2,001 5.2 -13.3°
Sets 17:28:57 0° 351° (N) 2,912 6.1 -13.6°
